ACA34 YSSY-CYVR

Flight info

Callsign ACA34
Flight time N/A
Altitude 31000
Route TESAT B450 NOBAR B474 VEMLA DCT 23S163E DCT NIPOG DCT 15S174E 09S179W/N0502F330 05S174W 01S170W DCT DULCE DCT 08N160W/N0493F350 13N155W 16N150W 19N145W 23N140W/N0480F370 2910N13345W 33N130W DCT DACEM DCT FOT/N0476F380 DCT BTG J1 SEA DCT PAE GRIZZ9
Aircraft B77L/H-SDE1E2E3FGHIJ2J3J4J5M1RWXY/LB1D1

Departure

Time 2026-05-04 08:54
Airport Sydney Kingsford Smith International Airport (YSSY)

Arrival

Time N/A
Airport Vancouver International Airport (CYVR)
Time Latitude Longitude Altitude Speed Heading
2026-05-04 07:27 -33.93890 151.16860 33 ft 0 kts 74°
2026-05-04 08:38 -33.93895 151.16838 33 ft 4 kts 74°
2026-05-04 08:38 -33.93902 151.16811 33 ft 3 kts 75°
2026-05-04 08:38 -33.93904 151.16781 33 ft 4 kts 111°
2026-05-04 08:40 -33.93887 151.16759 34 ft 0 kts 164°
2026-05-04 08:41 -33.93889 151.16760 34 ft 2 kts 164°
2026-05-04 08:41 -33.93926 151.16772 34 ft 7 kts 163°
2026-05-04 08:41 -33.93971 151.16789 34 ft 7 kts 164°
2026-05-04 08:42 -33.94020 151.16805 34 ft 7 kts 164°
2026-05-04 08:42 -33.94070 151.16820 34 ft 7 kts 166°
2026-05-04 08:42 -33.94119 151.16834 34 ft 7 kts 166°
2026-05-04 08:42 -33.94180 151.16852 33 ft 12 kts 166°
2026-05-04 08:43 -33.94273 151.16878 32 ft 14 kts 168°
2026-05-04 08:43 -33.94362 151.16901 34 ft 10 kts 165°
2026-05-04 08:43 -33.94407 151.16958 34 ft 10 kts 94°
2026-05-04 08:43 -33.94392 151.17039 34 ft 9 kts 75°
2026-05-04 08:44 -33.94374 151.17115 34 ft 9 kts 74°
2026-05-04 08:44 -33.94362 151.17167 34 ft 4 kts 73°
2026-05-04 08:46 -33.94407 151.17338 35 ft 8 kts 164°
2026-05-04 08:46 -33.94465 151.17353 35 ft 9 kts 168°
2026-05-04 08:46 -33.94529 151.17369 35 ft 11 kts 168°
2026-05-04 08:46 -33.94609 151.17390 35 ft 12 kts 168°
2026-05-04 08:47 -33.94693 151.17411 35 ft 12 kts 168°
2026-05-04 08:47 -33.94777 151.17433 34 ft 12 kts 168°
2026-05-04 08:47 -33.94861 151.17455 33 ft 12 kts 168°
2026-05-04 08:47 -33.94946 151.17477 34 ft 12 kts 168°
2026-05-04 08:48 -33.95031 151.17499 34 ft 12 kts 168°
2026-05-04 08:48 -33.95115 151.17521 34 ft 12 kts 168°
2026-05-04 08:48 -33.95199 151.17543 33 ft 12 kts 168°
2026-05-04 08:48 -33.95284 151.17565 33 ft 12 kts 168°
2026-05-04 08:49 -33.95368 151.17587 34 ft 12 kts 168°
2026-05-04 08:50 -33.95859 151.17736 32 ft 7 kts 137°
2026-05-04 08:50 -33.95883 151.17775 34 ft 6 kts 117°
2026-05-04 08:51 -33.95885 151.17784 34 ft 0 kts 111°
2026-05-04 08:51 -33.95890 151.17807 33 ft 12 kts 98°
2026-05-04 08:51 -33.95850 151.17911 33 ft 11 kts
2026-05-04 08:52 -33.95823 151.17905 33 ft 0 kts 349°
2026-05-04 08:52 -33.95761 151.17891 32 ft 32 kts 349°
2026-05-04 08:52 -33.95255 151.17760 34 ft 116 kts 348°
2026-05-04 08:53 -33.94207 151.17491 38 ft 190 kts 348°
2026-05-04 08:54 -33.85700 151.12653 5588 ft 210 kts 342°
2026-05-04 08:55 -33.84285 151.12162 6137 ft 214 kts 342°
2026-05-04 08:55 -33.82838 151.11685 6678 ft 217 kts 342°
2026-05-04 08:55 -33.81368 151.11215 7198 ft 219 kts 344°
2026-05-04 08:55 -33.79838 151.11199 7624 ft 229 kts 12°
2026-05-04 08:57 -33.77229 151.25123 10761 ft 284 kts 87°
2026-05-04 09:01 -33.78374 151.65239 16230 ft 409 kts 88°
2026-05-04 09:01 -33.78462 151.68650 16621 ft 418 kts 88°
2026-05-04 09:01 -33.78241 151.72147 16948 ft 415 kts 70°
2026-05-04 09:01 -33.77060 151.75274 17368 ft 412 kts 51°
2026-05-04 09:02 -33.75180 151.77849 17790 ft 409 kts 37°
2026-05-04 09:02 -33.73043 151.80104 18222 ft 415 kts 37°
2026-05-04 09:02 -33.70849 151.82396 18567 ft 419 kts 37°
2026-05-04 09:02 -33.68669 151.84670 19015 ft 422 kts 37°
2026-05-04 09:03 -33.66446 151.86998 19537 ft 423 kts 37°
2026-05-04 09:03 -33.64227 151.89332 20006 ft 426 kts 37°
2026-05-04 09:03 -33.61971 151.91712 20430 ft 430 kts 37°
2026-05-04 09:03 -33.59737 151.94074 20785 ft 435 kts 37°
2026-05-04 09:04 -33.57459 151.96487 21186 ft 439 kts 37°
2026-05-04 09:04 -33.55162 151.98922 21627 ft 442 kts 37°
2026-05-04 09:04 -33.52857 152.01365 22065 ft 444 kts 37°
2026-05-04 09:04 -33.50535 152.03826 22484 ft 447 kts 37°
2026-05-04 09:05 -33.48195 152.06303 22893 ft 451 kts 37°
2026-05-04 09:05 -33.45837 152.08798 23294 ft 454 kts 37°
2026-05-04 09:05 -33.43464 152.11306 23688 ft 457 kts 37°
2026-05-04 09:05 -33.41069 152.13835 24016 ft 460 kts 36°
2026-05-04 09:06 -33.38660 152.16377 24359 ft 463 kts 36°